Find Kosmos-451

NORAD ID: 5554 Int'l Des: 1971-086 Owner: OKB10 Country: SU operational
LEOCIRCULAR

当前视图

正在加载3D地球...

About Kosmos-451

Kosmos-451 (NORAD 5554) is a satellite by OKB10 of SU. It operates in LEO, CIRCULAR orbit

即将过境

Passes for default location (London). Set your location on the main map for personalized predictions.

高度历史

Loading altitude history...

两行轨道根数

1 5554U 71086H 26195.17824374 -.00000014 00000-0 11422-4 0 9990
2 5554 74.0301 355.0367 0053184 204.1964 268.2021 12.34309139467016
Epoch: Jul 14, 2026 • Age: 4 hours

当前状态

高度 1500.7 km
远地点 / 近地点 N/A
速度 7.13 km/s
星下点 -31.72°S, 122.05°E
类型 other

Most Searched